Sigfox identifier Datetime Temperature Humidity SNR
002F1C1B 2019-04-23 14:47:42 16.3 33 24.5
002F1C1B 2019-04-23 14:13:13 16.3 33 24.5
002F1C1B 2019-04-23 13:38:45 16.1 33 24.4
002F1C1B 2019-04-23 13:04:17 16 33 24.2
002F1C1B 2019-04-23 12:29:49 16 33 24.4
002F1C1B 2019-04-23 11:55:22 16 32 24.5
002F1C1B 2019-04-23 11:20:55 15.8 32 24.5
002F1C1B 2019-04-23 10:46:27 15.9 32 24.6
002F1C1B 2019-04-23 10:11:59 15.8 32 24.6
002F1C1B 2019-04-23 09:37:34 15.8 32 24.5
002F1C1B 2019-04-23 09:03:04 15.8 32 24.5
002F1C1B 2019-04-23 08:28:36 15.8 32 24.6
002F1C1B 2019-04-23 07:54:08 15.8 32 24.5
002F1C1B 2019-04-23 07:19:40 15.8 32 24.6
002F1C1B 2019-04-23 06:45:12 15.8 32 24.5
002F1C1B 2019-04-23 06:10:44 15.8 32 24.7
002F1C1B 2019-04-23 05:36:17 15.8 32 24.8
002F1C1B 2019-04-23 05:01:50 15.8 32 24.9
002F1C1B 2019-04-23 04:27:23 15.8 32 24.9
002F1C1B 2019-04-23 03:52:56 15.8 32 24.9
002F1C1B 2019-04-23 03:18:29 15.8 32 24.9
002F1C1B 2019-04-23 02:44:02 15.8 32 25
002F1C1B 2019-04-23 02:09:35 15.8 32 25
002F1C1B 2019-04-23 01:35:09 15.8 32 25.1
002F1C1B 2019-04-23 01:00:41 15.8 32 25.1
002F1C1B 2019-04-23 00:26:14 15.9 32 25.2
002F1C1B 2019-04-22 23:51:47 15.9 32 25.3
002F1C1B 2019-04-22 23:17:20 16 32 25.3
002F1C1B 2019-04-22 22:42:53 16 32 25.4
002F1C1B 2019-04-22 22:08:26 16 32 25.3
002F1C1B 2019-04-22 21:33:57 16 32 25.3
002F1C1B 2019-04-22 20:59:30 16 32 25.3
002F1C1B 2019-04-22 20:25:05 16 32 25.4
002F1C1B 2019-04-22 19:50:34 16.1 32 25.4
002F1C1B 2019-04-22 19:16:06 16.1 32 25.3
002F1C1B 2019-04-22 18:41:37 16 32 25.2
002F1C1B 2019-04-22 18:07:08 16 32 25.2
002F1C1B 2019-04-22 17:32:40 16 32 25.1
002F1C1B 2019-04-22 16:58:11 16 32 25
002F1C1B 2019-04-22 16:23:44 16 32 24.9
002F1C1B 2019-04-22 15:49:16 16 32 24.8
002F1C1B 2019-04-22 15:14:48 16 32 24.6
002F1C1B 2019-04-22 14:40:20 16 32 24.6
002F1C1B 2019-04-22 14:05:53 15.9 32 24.6
002F1C1B 2019-04-22 13:31:23 16 32 24.7
002F1C1B 2019-04-22 12:56:54 15.9 32 24.6
002F1C1B 2019-04-22 12:22:25 15.9 32 24.5
002F1C1B 2019-04-22 11:47:58 15.8 32 24.4
002F1C1B 2019-04-22 11:13:29 15.8 32 24.2
002F1C1B 2019-04-22 10:39:01 15.8 32 24.2
002F1C1B 2019-04-22 10:04:33 15.8 32 24.1
002F1C1B 2019-04-22 09:30:05 15.8 32 24.1
002F1C1B 2019-04-22 08:55:37 15.8 31 24.1
002F1C1B 2019-04-22 08:21:09 15.8 32 24.2
002F1C1B 2019-04-22 07:46:41 15.8 31 24.2
002F1C1B 2019-04-22 07:12:14 15.8 32 24.3
002F1C1B 2019-04-22 06:37:46 15.8 32 24.2
002F1C1B 2019-04-22 06:03:18 15.8 31 24.2
002F1C1B 2019-04-22 05:28:50 15.8 31 24.3
002F1C1B 2019-04-22 04:54:23 15.8 31 24.4
002F1C1B 2019-04-22 04:19:55 15.8 31 24.5
002F1C1B 2019-04-22 03:45:26 15.8 31 24.6
002F1C1B 2019-04-22 03:10:59 15.8 31 24.7
002F1C1B 2019-04-22 02:36:31 15.7 31 24.8
002F1C1B 2019-04-22 02:02:02 15.6 31 24.8
002F1C1B 2019-04-22 01:27:33 15.6 31 25
002F1C1B 2019-04-22 00:53:05 15.6 31 25.2
002F1C1B 2019-04-22 00:18:37 15.6 31 25.2
002F1C1B 2019-04-21 23:44:08 15.6 31 25.2
002F1C1B 2019-04-21 23:09:39 15.6 31 25.3
002F1C1B 2019-04-21 22:35:10 15.6 31 25.5
002F1C1B 2019-04-21 22:00:42 15.6 31 25.6
002F1C1B 2019-04-21 21:26:14 15.6 31 25.7
002F1C1B 2019-04-21 20:51:45 15.6 31 25.7
002F1C1B 2019-04-21 20:17:17 15.6 31 25.7
002F1C1B 2019-04-21 19:42:48 15.6 31 25.6
002F1C1B 2019-04-21 19:08:21 15.6 31 25.6
002F1C1B 2019-04-21 18:33:54 15.6 31 25.5
002F1C1B 2019-04-21 17:59:27 15.6 31 25.4
002F1C1B 2019-04-21 17:25:00 15.6 31 25.3
002F1C1B 2019-04-21 16:50:33 15.6 31 25.3
002F1C1B 2019-04-21 16:16:05 15.6 31 25.2
002F1C1B 2019-04-21 15:41:36 15.6 31 25.2
002F1C1B 2019-04-21 15:07:08 15.6 31 25.1
002F1C1B 2019-04-21 14:32:40 15.6 31 25.2
002F1C1B 2019-04-21 13:58:12 15.6 31 25.2
002F1C1B 2019-04-21 13:23:44 15.6 31 25.2
002F1C1B 2019-04-21 12:49:16 15.6 31 25.2
002F1C1B 2019-04-21 12:14:47 15.6 31 25.3
002F1C1B 2019-04-21 11:40:19 15.6 31 25.3
002F1C1B 2019-04-21 11:05:53 15.7 31 25.2
002F1C1B 2019-04-21 10:31:26 15.8 31 25
002F1C1B 2019-04-21 09:56:59 15.8 31 24.9
002F1C1B 2019-04-21 09:22:32 15.8 31 25
002F1C1B 2019-04-21 08:48:04 15.8 31 24.9
002F1C1B 2019-04-21 08:13:37 15.8 31 24.8
002F1C1B 2019-04-21 07:39:09 15.8 30 24.8
002F1C1B 2019-04-21 07:04:42 15.8 31 24.7
002F1C1B 2019-04-21 06:30:14 15.8 30 24.7
002F1C1B 2019-04-21 05:55:45 15.8 30 24.6
002F1C1B 2019-04-21 05:21:18 15.8 30 24.7
002F1C1B 2019-04-21 04:46:51 15.8 30 24.7
002F1C1B 2019-04-21 04:12:23 15.8 30 24.7
002F1C1B 2019-04-21 03:37:55 15.8 30 24.7
002F1C1B 2019-04-21 03:03:29 15.8 30 24.8
002F1C1B 2019-04-21 02:29:01 15.8 30 24.8
002F1C1B 2019-04-21 01:54:33 15.8 30 24.8
002F1C1B 2019-04-21 01:20:07 15.7 30 24.8
002F1C1B 2019-04-21 00:45:39 15.7 30 24.8
002F1C1B 2019-04-21 00:11:12 15.7 30 24.9
002F1C1B 2019-04-20 23:36:44 15.6 30 24.9
002F1C1B 2019-04-20 23:02:17 15.7 30 24.8
002F1C1B 2019-04-20 22:27:49 15.6 30 24.6
002F1C1B 2019-04-20 21:53:21 15.8 30 24.6
002F1C1B 2019-04-20 21:18:53 15.7 30 24.7
002F1C1B 2019-04-20 20:44:25 15.8 30 24.8
002F1C1B 2019-04-20 20:09:58 15.7 30 24.8
002F1C1B 2019-04-20 19:35:31 15.8 30 24.8
002F1C1B 2019-04-20 19:01:03 15.8 30 24.8
002F1C1B 2019-04-20 18:26:36 15.8 30 24.7
002F1C1B 2019-04-20 17:52:10 15.7 30 24.7
002F1C1B 2019-04-20 17:17:44 15.7 30 24.6
002F1C1B 2019-04-20 16:43:17 15.7 30 24.5
002F1C1B 2019-04-20 16:08:51 15.7 30 24.5
002F1C1B 2019-04-20 15:34:24 15.7 30 24.6
002F1C1B 2019-04-20 14:59:57 15.7 30 24.6
002F1C1B 2019-04-20 14:25:30 15.6 30 24.5
002F1C1B 2019-04-20 13:51:03 15.7 30 24.6
002F1C1B 2019-04-20 13:16:36 15.8 30 24.8
002F1C1B 2019-04-20 12:42:08 15.8 30 24.8
002F1C1B 2019-04-20 12:07:42 15.8 30 24.8
002F1C1B 2019-04-20 11:33:14 15.8 29 24.7
002F1C1B 2019-04-20 10:58:48 15.8 29 24.6
002F1C1B 2019-04-20 10:24:21 15.8 29 24.7
002F1C1B 2019-04-20 09:49:54 15.8 29 24.7
002F1C1B 2019-04-20 09:15:27 15.9 29 24.7
002F1C1B 2019-04-20 08:41:00 15.9 29 24.7
002F1C1B 2019-04-20 08:06:33 15.9 29 24.8
002F1C1B 2019-04-20 07:32:07 15.9 29 24.6
002F1C1B 2019-04-20 06:57:41 15.9 29 24.7
002F1C1B 2019-04-20 06:23:15 16 29 24.7
002F1C1B 2019-04-20 05:48:50 16 29 24.7
002F1C1B 2019-04-20 05:14:25 16 29 24.7
002F1C1B 2019-04-20 04:39:59 16 29 24.8
002F1C1B 2019-04-20 04:05:34 16 29 24.8
002F1C1B 2019-04-20 03:31:08 16 29 24.9
002F1C1B 2019-04-20 02:56:42 16 29 25
002F1C1B 2019-04-20 02:22:16 16 29 25.1
002F1C1B 2019-04-20 01:47:50 16.1 29 25.1
002F1C1B 2019-04-20 01:13:24 16.2 29 25.2
002F1C1B 2019-04-20 00:38:56 16.2 29 25.3
002F1C1B 2019-04-20 00:04:29 16.3 29 25.3
002F1C1B 2019-04-19 23:30:01 16.3 29 25.4
002F1C1B 2019-04-19 22:55:33 16.3 29 25.4
002F1C1B 2019-04-19 22:21:05 16.3 29 25.5
002F1C1B 2019-04-19 21:46:38 16.3 29 25.6
002F1C1B 2019-04-19 21:12:11 16.3 29 25.6
002F1C1B 2019-04-19 20:37:43 16.3 29 25.5
002F1C1B 2019-04-19 20:03:16 16.3 29 25.5
002F1C1B 2019-04-19 19:28:47 16.3 29 25.4
002F1C1B 2019-04-19 18:54:21 16.3 29 25.4
002F1C1B 2019-04-19 18:19:52 16.3 29 25.3
002F1C1B 2019-04-19 17:45:26 16.3 29 25.4
002F1C1B 2019-04-19 17:10:58 16.3 29 25.3
002F1C1B 2019-04-19 16:36:31 16.3 29 25.3
002F1C1B 2019-04-19 16:02:03 16.3 29 25.1
002F1C1B 2019-04-19 15:27:36 16.3 29 25.1
002F1C1B 2019-04-19 14:53:09 16.2 28 25.1
002F1C1B 2019-04-19 14:18:43 16.1 28 25
002F1C1B 2019-04-19 13:44:17 16.1 28 24.9
002F1C1B 2019-04-19 13:09:49 16 28 24.8
002F1C1B 2019-04-19 12:35:21 16 28 24.7
002F1C1B 2019-04-19 12:00:54 16 28 24.6
002F1C1B 2019-04-19 11:26:27 16 28 24.3
002F1C1B 2019-04-19 10:52:00 16 28 24.3
002F1C1B 2019-04-19 10:17:32 16 28 24.2
002F1C1B 2019-04-19 09:43:05 16 28 24.1
002F1C1B 2019-04-19 09:08:38 16 28 24.1
002F1C1B 2019-04-19 08:34:10 16 28 24.1
002F1C1B 2019-04-19 07:59:43 16 28 24.3
002F1C1B 2019-04-19 07:25:16 16.1 28 24.2
002F1C1B 2019-04-19 06:50:49 16.2 28 24.1
002F1C1B 2019-04-19 06:16:22 16.3 28 24.1
002F1C1B 2019-04-19 05:41:54 16.3 28 24.4
002F1C1B 2019-04-19 05:07:27 16.3 28 24.5
002F1C1B 2019-04-19 04:33:00 16.3 28 24.7
002F1C1B 2019-04-19 03:58:33 16.3 28 24.7
002F1C1B 2019-04-19 03:24:06 16.3 28 24.8
002F1C1B 2019-04-19 02:49:38 16.3 28 24.8
002F1C1B 2019-04-19 02:15:11 16.4 28 24.7
002F1C1B 2019-04-19 01:40:43 16.5 28 25.1
002F1C1B 2019-04-19 01:06:16 16.5 28 25.1
002F1C1B 2019-04-19 00:31:48 16.5 28 25
002F1C1B 2019-04-18 23:57:21 16.7 28 25
002F1C1B 2019-04-18 23:22:53 16.7 28 25
002F1C1B 2019-04-18 22:48:26 16.7 28 25
002F1C1B 2019-04-18 22:13:59 16.7 28 25.1
002F1C1B 2019-04-18 21:39:34 16.7 27 25.3
002F1C1B 2019-04-18 21:05:05 16.7 27 25.2
002F1C1B 2019-04-18 20:30:38 16.7 27 25.1
002F1C1B 2019-04-18 19:56:11 16.7 27 25
002F1C1B 2019-04-18 19:21:46 16.7 27 24.9
002F1C1B 2019-04-18 18:47:20 16.7 27 24.7
002F1C1B 2019-04-18 18:12:53 16.7 27 24.6
002F1C1B 2019-04-18 17:38:27 16.7 27 24.5
002F1C1B 2019-04-18 17:04:01 16.6 27 24.4
002F1C1B 2019-04-18 16:29:33 16.5 27 24.3
002F1C1B 2019-04-18 15:55:07 16.5 27 23.9
002F1C1B 2019-04-18 15:20:40 16.5 27 23.7
002F1C1B 2019-04-18 14:46:13 16.5 27 23.5
002F1C1B 2019-04-18 14:11:47 16.5 27 23.3
002F1C1B 2019-04-18 13:37:19 16.4 27 22.9
002F1C1B 2019-04-18 13:02:53 16.4 27 22.9
002F1C1B 2019-04-18 12:28:26 16.3 27 23.2
002F1C1B 2019-04-18 11:54:00 16.4 27 23.1
002F1C1B 2019-04-18 11:19:33 16.4 27 23.3
002F1C1B 2019-04-18 10:45:07 16.3 27 23.5
002F1C1B 2019-04-18 10:10:39 16.3 26 23.6
002F1C1B 2019-04-18 09:36:12 16.3 26 23.6
002F1C1B 2019-04-18 09:01:44 16.4 26 23.7
002F1C1B 2019-04-18 08:27:17 16.4 26 23.8
002F1C1B 2019-04-18 07:52:51 16.5 26 23.7
002F1C1B 2019-04-18 07:18:24 16.4 26 24
002F1C1B 2019-04-18 06:43:57 16.3 26 24.1
002F1C1B 2019-04-18 06:09:29 16.3 26 24.2
002F1C1B 2019-04-18 05:35:01 16.3 26 24.4
002F1C1B 2019-04-18 05:00:34 16.3 26 24.6
002F1C1B 2019-04-18 04:26:08 16.5 26 24.8
002F1C1B 2019-04-18 03:51:42 16.5 26 24.8
002F1C1B 2019-04-18 03:17:15 16.5 26 24.7
002F1C1B 2019-04-18 02:42:48 16.5 26 24.8
002F1C1B 2019-04-18 02:08:19 16.7 26 25.4
002F1C1B 2019-04-18 01:33:52 16.7 26 25.3
002F1C1B 2019-04-18 00:59:23 16.7 26 25.3
002F1C1B 2019-04-18 00:24:55 16.8 26 25.5
002F1C1B 2019-04-17 23:50:28 16.9 26 25.5
002F1C1B 2019-04-17 23:16:00 16.9 26 25.6
002F1C1B 2019-04-17 22:41:34 16.9 26 25.4
002F1C1B 2019-04-17 22:07:06 16.9 25 25.1
002F1C1B 2019-04-17 21:32:38 16.9 25 24.9
002F1C1B 2019-04-17 20:58:11 16.9 25 24.9
002F1C1B 2019-04-17 20:23:43 16.9 25 24.8
002F1C1B 2019-04-17 19:49:16 16.8 25 24.7
002F1C1B 2019-04-17 19:14:49 16.9 25 24.5
002F1C1B 2019-04-17 18:40:21 16.9 25 24.4
002F1C1B 2019-04-17 18:05:54 16.9 25 24.2
002F1C1B 2019-04-17 17:31:26 16.9 25 24
002F1C1B 2019-04-17 16:56:58 16.9 25 23.9
002F1C1B 2019-04-17 16:22:30 16.9 25 23.7
002F1C1B 2019-04-17 15:48:02 16.9 25 23.5
002F1C1B 2019-04-17 15:13:34 16.9 25 23.4
002F1C1B 2019-04-17 14:39:07 17 24 23
002F1C1B 2019-04-17 14:04:40 17.1 24 23.1
002F1C1B 2019-04-17 13:30:12 17.1 24 23.2
002F1C1B 2019-04-17 12:55:44 17.1 24 23
002F1C1B 2019-04-17 12:21:17 17.1 24 22.9
002F1C1B 2019-04-17 11:46:49 17.1 24 22
002F1C1B 2019-04-17 11:12:21 17.1 24 22
002F1C1B 2019-04-17 10:37:53 17.1 24 22
002F1C1B 2019-04-17 10:03:27 17.2 24 21.4
002F1C1B 2019-04-17 09:28:59 17.3 24 21.3
002F1C1B 2019-04-17 08:54:30 17.3 24 20.7
002F1C1B 2019-04-17 08:20:03 17.5 24 20.8
002F1C1B 2019-04-17 07:45:35 17.7 24 20.9
002F1C1B 2019-04-17 07:11:06 17.8 24 21.3
002F1C1B 2019-04-17 06:36:39 17.8 24 21.2
002F1C1B 2019-04-17 06:02:11 17.8 24 21
002F1C1B 2019-04-17 05:27:43 18 23 20.8
002F1C1B 2019-04-17 04:53:15 18 23 20.6
002F1C1B 2019-04-17 04:18:47 18 23 20.4
002F1C1B 2019-04-17 03:44:20 18.1 23 20.1
002F1C1B 2019-04-17 03:09:53 18.2 23 19.7
002F1C1B 2019-04-17 02:35:26 18.2 23 19.6
002F1C1B 2019-04-17 02:00:59 18.2 23 19.3
002F1C1B 2019-04-17 01:26:33 18.3 23 19.3
002F1C1B 2019-04-17 00:52:04 18.4 23 18.8
002F1C1B 2019-04-17 00:17:37 18.4 23 18.7
002F1C1B 2019-04-16 23:43:10 18.4 22 18.8
002F1C1B 2019-04-16 23:08:43 18.6 22 18.4
002F1C1B 2019-04-16 22:34:16 18.8 22 19
002F1C1B 2019-04-16 21:59:49 19 22 19.4
002F1C1B 2019-04-16 21:25:22 19.1 22 19.5
002F1C1B 2019-04-16 20:50:55 19.2 22 19.7
002F1C1B 2019-04-16 20:16:28 19.3 22 19.6
002F1C1B 2019-04-16 19:42:01 19.5 22 20.1
002F1C1B 2019-04-16 19:07:33 19.5 22 20.3
002F1C1B 2019-04-16 18:33:06 19.7 22 20.8
002F1C1B 2019-04-16 17:58:38 19.7 22 20.9
002F1C1B 2019-04-16 16:49:41 20.1 22 21.1
002F1C1B 2019-04-16 16:15:13 20.3 22 21
002F1C1B 2019-04-16 15:06:16 20.8 22 21.1
002F1C1B 2019-04-16 14:31:52 21.1 22 21.3
002F1C1B 2019-04-16 13:57:18 21.2 22 21.6
002F1C1B 2019-04-16 13:22:53 21.2 22 22
002F1C1B 2019-04-16 12:48:22 21.2 22 22.1
002F1C1B 2019-04-16 12:13:55 21.2 22 22.1
002F1C1B 2019-04-16 11:39:22 21.1 22 22.2
002F1C1B 2019-04-16 11:04:54 21 22 22.3
002F1C1B 2019-04-16 10:30:25 21 22 22.3
002F1C1B 2019-04-16 09:55:56 21 22 22.2
002F1C1B 2019-04-16 09:21:28 21 22 22.5
002F1C1B 2019-04-16 08:47:00 21 22 22.5
002F1C1B 2019-04-16 08:12:31 21 21 22.4
002F1C1B 2019-04-16 07:38:02 21 21 22.5
002F1C1B 2019-04-16 07:03:34 21 21 22.2
002F1C1B 2019-04-16 06:29:06 21.1 21 22
002F1C1B 2019-04-16 05:54:37 21 21 21.9
002F1C1B 2019-04-16 05:20:10 21.1 21 21.9
002F1C1B 2019-04-16 04:45:43 21.1 21 21.8
002F1C1B 2019-04-16 04:11:15 21.1 21 21.5
002F1C1B 2019-04-16 03:36:48 21.1 21 21.4
002F1C1B 2019-04-16 03:02:19 21.2 21 20.9
002F1C1B 2019-04-16 02:27:51 21.2 21 20.7
002F1C1B 2019-04-16 01:53:22 21.2 21 20.6
002F1C1B 2019-04-16 01:18:54 21.2 21 20.8
002F1C1B 2019-04-16 00:44:25 21.2 21 21
002F1C1B 2019-04-16 00:09:56 21.2 21 21.2
002F1C1B 2019-04-15 23:35:28 21.2 20 22.1
002F1C1B 2019-04-15 23:01:03 21.2 20 21.8
002F1C1B 2019-04-15 22:26:31 21.2 20 22.2
002F1C1B 2019-04-15 21:52:03 21.2 20 22.9
002F1C1B 2019-04-15 21:17:36 21.2 20 23.2
002F1C1B 2019-04-15 20:43:07 21.2 20 23.5
002F1C1B 2019-04-15 20:08:39 21.2 20 23.7
002F1C1B 2019-04-15 19:34:10 21.4 20 24
002F1C1B 2019-04-15 18:59:41 21.4 20 24.2
002F1C1B 2019-04-15 18:25:12 21.4 20 24.5
002F1C1B 2019-04-15 17:50:44 21.4 19 24.8
002F1C1B 2019-04-15 17:16:18 21.6 19 25.2
002F1C1B 2019-04-15 16:41:48 21.6 19 25.5
002F1C1B 2019-04-15 16:07:23 21.6 19 25.8
002F1C1B 2019-04-15 15:32:54 21.8 19 26.1
002F1C1B 2019-04-15 14:58:26 21.8 18 26.2
002F1C1B 2019-04-15 14:23:59 22 18 26.4
002F1C1B 2019-04-15 13:49:31 22.1 18 26.6
002F1C1B 2019-04-15 13:15:02 22.2 17 26.7
002F1C1B 2019-04-15 12:40:37 22.5 17 27
002F1C1B 2019-04-15 12:06:04 22.7 17 27.2
002F1C1B 2019-04-15 11:31:36 22.5 15 27.5
002F1C1B 2019-04-15 10:57:07 22.5 16 27.6
002F1C1B 2019-04-15 10:22:38 22.4 16 27.9
002F1C1B 2019-04-15 09:48:09 22.3 16 27.8
002F1C1B 2019-04-15 09:13:40 22.2 16 27.6
002F1C1B 2019-04-15 08:39:12 22.2 16 27.7
002F1C1B 2019-04-15 08:04:42 22 16 27.7
002F1C1B 2019-04-15 07:30:13 22 16 27.7
002F1C1B 2019-04-15 06:55:43 22 16 27.7
002F1C1B 2019-04-15 06:21:13 22 16 27.6
002F1C1B 2019-04-15 05:46:43 21.9 16 27.7
002F1C1B 2019-04-15 05:12:13 21.9 17 27.8
002F1C1B 2019-04-15 04:37:44 21.8 17 27.7
002F1C1B 2019-04-15 04:03:16 21.8 17 27.7
002F1C1B 2019-04-15 03:28:47 21.8 17 27.7
002F1C1B 2019-04-15 02:54:17 21.8 17 27.5
002F1C1B 2019-04-15 02:19:47 21.8 17 27.4
002F1C1B 2019-04-15 01:45:16 21.8 17 27.3
002F1C1B 2019-04-15 01:10:47 21.8 17 27.4
002F1C1B 2019-04-15 00:36:16 21.8 17 27.5
002F1C1B 2019-04-15 00:01:46 21.8 17 27.7
002F1C1B 2019-04-14 23:27:16 21.8 17 27.7
002F1C1B 2019-04-14 22:52:44 21.8 17 27.8
002F1C1B 2019-04-14 22:18:13 22 17 27.7
002F1C1B 2019-04-14 21:43:44 22 18 27.7
002F1C1B 2019-04-14 21:09:15 22 18 27.7
002F1C1B 2019-04-14 20:34:45 22 18 27.6
002F1C1B 2019-04-14 20:00:16 22.2 17 27.5
002F1C1B 2019-04-14 19:25:47 22.2 17 27.5
002F1C1B 2019-04-14 18:51:18 22.2 17 27.5
002F1C1B 2019-04-14 18:16:49 22.1 17 27.5
002F1C1B 2019-04-14 17:42:20 22 17 27.7
002F1C1B 2019-04-14 17:07:51 22 17 27.7
002F1C1B 2019-04-14 16:33:22 22 17 27.6
002F1C1B 2019-04-14 15:58:53 22 17 27.6
002F1C1B 2019-04-14 15:24:24 22 17 27.5
002F1C1B 2019-04-14 14:49:54 22 17 27.6
002F1C1B 2019-04-14 14:15:25 22 17 27.7
002F1C1B 2019-04-14 13:40:56 22 18 27.7
002F1C1B 2019-04-14 13:06:28 22 18 27.7
002F1C1B 2019-04-14 12:31:58 22 18 27.9
002F1C1B 2019-04-14 11:57:28 22 18 27.9
002F1C1B 2019-04-14 11:22:59 22 18 27.9
002F1C1B 2019-04-14 10:48:30 22 18 27.8
002F1C1B 2019-04-14 10:14:02 22 18 27.9
002F1C1B 2019-04-14 09:39:33 22 18 27.7
002F1C1B 2019-04-14 09:05:05 22 18 27.7
002F1C1B 2019-04-14 08:30:37 22 17 27.6
002F1C1B 2019-04-14 07:56:07 22 17 27.6
002F1C1B 2019-04-14 07:21:38 22 17 27.7
002F1C1B 2019-04-14 06:47:09 22 17 27.4
002F1C1B 2019-04-14 06:12:39 22 17 27.3
002F1C1B 2019-04-14 05:38:09 22 17 27.4
002F1C1B 2019-04-14 05:03:38 22 17 27.4
002F1C1B 2019-04-14 04:29:09 21.9 17 27.6
002F1C1B 2019-04-14 03:54:40 22 17 27.6
002F1C1B 2019-04-14 03:20:10 22 17 27.5
002F1C1B 2019-04-14 02:45:40 22 17 27.5
002F1C1B 2019-04-14 02:11:10 22 17 27.5
002F1C1B 2019-04-14 01:36:40 22 17 27.7
002F1C1B 2019-04-14 01:02:11 22 17 27.9
002F1C1B 2019-04-14 00:27:42 22 17 27.9
002F1C1B 2019-04-13 23:53:12 22 17 27.8
002F1C1B 2019-04-13 23:18:43 22.1 17 27.9
002F1C1B 2019-04-13 22:44:15 22 17 27.9
002F1C1B 2019-04-13 22:09:46 22.1 17 27.8
002F1C1B 2019-04-13 21:35:19 22.1 17 27.8
002F1C1B 2019-04-13 21:00:50 22.1 17 27.8
002F1C1B 2019-04-13 20:26:22 22.2 17 27.7
002F1C1B 2019-04-13 19:51:53 22.2 17 27.6
002F1C1B 2019-04-13 19:17:23 22.2 17 27.6
002F1C1B 2019-04-13 18:42:53 22.2 17 27.5
002F1C1B 2019-04-13 18:08:22 22.2 17 27.5
002F1C1B 2019-04-13 17:33:52 22.2 17 27.6
002F1C1B 2019-04-13 16:59:21 22.4 17 27.4
002F1C1B 2019-04-13 16:24:51 22.3 17 27.5
002F1C1B 2019-04-13 15:50:20 22.5 17 27.5
002F1C1B 2019-04-13 15:15:50 22.5 17 27.3
002F1C1B 2019-04-13 14:41:21 22.5 17 27.3
002F1C1B 2019-04-13 14:06:52 22.5 17 27.2
002F1C1B 2019-04-13 13:32:23 22.5 17 27.3
002F1C1B 2019-04-13 12:57:54 22.5 17 27.2
002F1C1B 2019-04-13 12:23:24 22.5 17 27.2
002F1C1B 2019-04-13 11:48:54 22.5 17 27.2
002F1C1B 2019-04-13 11:14:25 22.5 17 27.1
002F1C1B 2019-04-13 10:39:56 22.5 17 26.9
002F1C1B 2019-04-13 10:05:27 22.5 17 26.8
002F1C1B 2019-04-13 09:30:57 22.5 17 26.8
002F1C1B 2019-04-13 08:56:27 22.5 17 26.8
002F1C1B 2019-04-13 08:21:58 22.5 16 26.7
002F1C1B 2019-04-13 07:47:29 22.5 16 26.7
002F1C1B 2019-04-13 07:12:59 22.5 16 26.7
002F1C1B 2019-04-13 06:38:28 22.5 16 26.7
002F1C1B 2019-04-13 06:03:59 22.5 16 26.7
002F1C1B 2019-04-13 05:29:30 22.5 16 26.6
002F1C1B 2019-04-13 04:55:02 22.5 16 26.8
002F1C1B 2019-04-13 04:20:32 22.5 16 27.1
002F1C1B 2019-04-13 03:46:02 22.5 16 27.2
002F1C1B 2019-04-13 03:11:31 22.5 16 27
002F1C1B 2019-04-13 02:37:02 22.5 16 27
002F1C1B 2019-04-13 02:02:33 22.5 17 27
002F1C1B 2019-04-13 01:28:02 22.6 17 27.1
002F1C1B 2019-04-13 00:53:31 22.6 17 27.1
002F1C1B 2019-04-13 00:19:01 22.7 17 27.2
002F1C1B 2019-04-12 23:44:31 22.7 17 27.2
002F1C1B 2019-04-12 23:10:02 22.7 17 27.2
002F1C1B 2019-04-12 22:35:32 22.7 17 27.2
002F1C1B 2019-04-12 22:01:03 22.9 17 27.2
002F1C1B 2019-04-12 21:26:33 22.9 17 27.3
002F1C1B 2019-04-12 20:52:03 22.9 18 27.3
002F1C1B 2019-04-12 20:17:34 22.9 17 27.3
002F1C1B 2019-04-12 19:43:03 22.9 16 27.2
002F1C1B 2019-04-12 19:08:34 22.9 16 27.2
002F1C1B 2019-04-12 18:34:03 23.1 16 27.2
002F1C1B 2019-04-12 17:59:34 23.3 16 27.3
002F1C1B 2019-04-12 17:25:03 23.3 16 27.2
002F1C1B 2019-04-12 16:50:31 23.3 16 27.4
002F1C1B 2019-04-12 16:16:02 23.3 17 27.6
002F1C1B 2019-04-12 15:41:31 23.3 17 27.9
002F1C1B 2019-04-12 15:07:01 23.2 17 28.4
002F1C1B 2019-04-12 14:32:32 23.1 17 27.7
002F1C1B 2019-04-12 13:58:02 22.7 18 25.8
002F1C1B 2019-04-12 13:23:31 22 20 21.4